KUIPER-00573

导读

KUIPER-00573(NORAD编号69627)是亚马逊柯伊伯(Project Kuiper)低轨宽带星座的现役卫星,属于该项目2025年启动运营部署后发射的量产星,大概率为2025年4月KA-01任务或后续批次发射的载荷之一,初始入轨高度约450公里,通过自身霍尔电推进器提升至630公里的星座运营轨道,轨道倾角约51.9度。 该卫星承担全球高速低延迟宽带通信测试与服务验证任务,是亚马逊推进星座组网、对接航空机载通信等商业化场景的组成部分。当前柯伊伯星座已完成5次发射,在轨卫星总数达129颗,正按FCC要求推进2026年7月前完成半数星座部署的进度要求。

Basic Information
目录编号:
69627
目录名称:
KUIPER-00573
国际标识:
2026-140AM
轨道中心:
EARTH
卫星名称:
KUIPER-00573
卫星全名:
KUIPER-00573
卫星状态:
在轨 (已飞行86 天)
发射日期:
2026-06-17 UTC
国别 :
美国 (US)
星等 :
--
This satellite is enrolled in the Space Conjunction Data Service (SCDS) and the current flight risk assessment level is: No High Risk
Orbit Information
数据来源 国际轨道数据
星历时间: 2026-09-11T14:00:02+0800
14小时前
查看轨道信息
半长轴: 7007.563km
偏心率: 0.0001084
轨道倾角: 51.902°
近地点辐角 99.931°
升交点赤经 350.110°
平近点角 55.590°
近地点: 628.666km
远地点: 630.186km
周期: 97.299分钟
每日圈数: 14.799678
Detailed Information
使用方式:
暂无
2D Orbit Map
3D Orbit Map
Orbit Altitude Analysis Chart
Orbit Inclination Analysis Chart
Orbit Comprehensive Analysis Chart
View Comprehensive Chart
Conjunction Data List
Event ID Objects TCA Miss Dist (km) Collision Risk Probability Collision Risk Index (CRI) Action
CDM_260913-133006-578506-962721
2026-09-13T
13:30:41+0000
0.293 km
中距离
3.763452E-4 高风险 0.87
CDM_260914-013906-578506-962721
2026-09-14T
01:39:58+0000
1.292 km
极远距离
6.501251E-6 低风险 0.51
CDM_260914-000206-578506-962721
2026-09-14T
00:02:44+0000
2.090 km
极远距离
1.592011E-6 低风险 0.39
CDM_260913-115306-578506-962721
2026-09-13T
11:53:27+0000
2.316 km
极远距离
1.280464E-6 低风险 0.37
CDM_260905-030205-144406-962721
CSG-2 (51444)
2026-09-05T
03:02:39+0000
2.667 km
极远距离
1.132814E-6 低风险 0.36
CDM_260913-150706-578506-962721
2026-09-13T
15:07:55+0000
2.830 km
极远距离
9.279185E-7 极低风险 0.34
Miss Distance Evolution Trend with All Objects
Collision Probability Evolution Trend with All Objects